Regional Weather Roundup
Issued by NWS Upton, NY

Current Version | Previous Version | Text Only | Print | Product List | Glossary On
Versions: 1 2 3 4 5 6 7 8 9 10 11 12 13 14 15 16 17 18 19 20 21 22 23 24 25 26 27
000
ASUS41 KOKX 290904
RWROKX

REGIONAL WEATHER ROUNDUP
NATIONAL WEATHER SERVICE NEW YORK NY
500 AM EDT SUN MAY 29 2016

NOTE: "FAIR" INDICATES FEW OR NO CLOUDS BELOW 12,000 FEET WITH NO
SIGNIFICANT WEATHER AND/OR OBSTRUCTIONS TO VISIBILITY.

NYZ071-072-176-178-NJZ106-104-291000-
NEW YORK CITY METRO AREA


CITY           SKY/WX    TMP DP  RH WIND       PRES   REMARKS
CENTRAL PARK   CLEAR     73  54  51 VRB6      30.15S
LAGUARDIA APRT CLOUDY    74  58  57 S5        30.11S
KENNEDY INTL   PTCLDY    65  55  70 S3        30.14S
NEWARK/LIBERTY CLEAR     71  55  56 SW9       30.12S
BRNX BOT. GARD   N/A     73  55  53 CALM      30.14R
TETERBORO      CLEAR     70  54  56 SW6       30.11S
$$

NYZ177-179-078>081-291000-
LONG ISLAND NEW YORK

CITY           SKY/WX    TMP DP  RH WIND       PRES   REMARKS
FARMINGDALE    CLEAR     65  52  62 SW5       30.13S
ISLIP          CLEAR     65  55  70 SW7       30.13S
SHIRLEY        CLEAR     67  56  67 SW6       30.14S
RIVERHEAD      NOT AVBL
WESTHAMPTON    CLEAR     63  57  81 SW6       30.15S
EAST HAMPTON   FAIR      65  56  72 SW5       30.12S
MONTAUK POINT    N/A     63  58  83 S3        30.14S
$$

NYZ052-065-067-291000-
HUDSON VALLEY

CITY           SKY/WX    TMP DP  RH WIND       PRES   REMARKS
WHITE PLAINS   CLOUDY    69  61  75 CALM      30.12S
NEWBURGH       PTCLDY    70  66  88 SW6       30.12S
MONTGOMERY     CLEAR     68  67  96 S3        30.11S FOG
POUGHKEEPSIE   CLEAR     69  65  86 CALM      30.10R
ALBANY         PTCLDY    70  65  84 CALM      30.09S
$$

NJZ001-105-106-008-010-013-015-019>022-104-291000-
NEW JERSEY

CITY           SKY/WX    TMP DP  RH WIND       PRES   REMARKS
NEWARK/LIBERTY CLEAR     71  55  56 SW9       30.12S
TETERBORO      CLEAR     70  54  56 SW6       30.11S
CALDWELL       CLEAR     70  60  70 CALM      30.13R
MORRISTOWN     CLEAR     68  59  73 S3        30.13R
SOMERVILLE     CLEAR     64  62  93 CALM      30.12R FOG
SUSSEX         FOG       66  65  96 CALM      30.13R VSB 1/2
ANDOVER          N/A     66  65  96 CALM      30.14R
TRENTON        CLEAR     66  57  72 SW3       30.13S
MILLVILLE      CLEAR     59  57  93 CALM      30.15S
ATLANTIC CITY  CLEAR     64  61  90 CALM      30.15S
WRIGHTSTOWN    CLEAR     62  54  77 CALM      30.13S
TOMS RIVER     CLEAR    N/A N/A N/A CALM      30.15S
BELMAR         PTCLDY    66  54  65 SW5       30.16R
$$

PAZ047>061-062-071-291000-
EASTERN PENNSYLVANIA

CITY           SKY/WX    TMP DP  RH WIND       PRES   REMARKS
PHILADELPHIA   MOCLDY    67  56  67 S6        30.15R
ALLENTOWN      CLEAR     66  61  84 CALM      30.13S
SCRANTON       PTCLDY    68  65  90 E3        30.13S
$$

CTZ002-004>006-009-010-012-RIZ004-006-007-MAZ004-011-015-291000-
SOUTHERN NEW ENGLAND
 IN CT

CITY           SKY/WX    TMP DP  RH WIND       PRES   REMARKS
BRADLEY INTL   PTCLDY    68  60  75 CALM      30.10S
HARTFORD       CLEAR     69  61  75 CALM      30.10S
DANBURY        CLEAR     68  64  87 CALM      30.13S
WTRBRY/OXFORD    N/A     68  61  77 CALM      30.14S
BRIDGEPORT     CLEAR     68  56  65 SW8       30.11S
MERIDEN        CLEAR     65  59  81 CALM      30.11S
NEW HAVEN      PTCLDY    66  55  67 SW5       30.12S
CHESTER        FAIR      68  52  56 SW6       30.12S
GROTON         MOCLDY    61  55  81 S5        30.11F
WILLIMANTIC    PTCLDY    66  61  84 CALM      30.12S

 IN RI

CITY           SKY/WX    TMP DP  RH WIND       PRES   REMARKS
PROVIDENCE     CLEAR     67  54  63 CALM      30.12R
BLOCK ISLAND   CLEAR     61  57  87 SW16      30.13F
WESTERLY       MOCLDY    65  51  60 SW3       30.12F

 IN MA

CITY           SKY/WX    TMP DP  RH WIND       PRES   REMARKS
BOSTON         CLOUDY    61  57  87 N10       30.15R
WORCESTER      MOCLDY    67  65  93 NE9       30.16R FOG
WESTFIELD      CLEAR     66  62  87 CALM      30.11S
PROVINCETOWN   MOCLDY    61  56  83 W8        30.13R
NANTUCKET      CLEAR     59  56  89 SW9       30.14S
$$

ANZ330-335-338-340-345-350-353-355-291000-
COASTAL MARINE OBSERVATIONS


STATION/POSITION TIME  SKY/WX   TEMP    WIND        PRES    VSBY  WAVE
                                AIR SEA DIR/SP/G                  HT/PER
                 (UTC)          (F)     (DEG/KT/KT) (MB)    (MI)  (FT/S)
NY HARB ENTRANCE 0750            60 58  210/  6/  6 1020.2          3/ 8
20S FIRE ISLAND  0750            62 59  230/ 10/ 12 1020.4          3/ 8
GREAT SOUTH BAY  0800            66 70  250/ 12/ 16   N/A
23 SSW MONTAUK P 0850            59 57  230/  8/  8 1020.2          3/ 5
15 E BARNEGAT LI 0822               58                N/A           3/ 8
HUDSON CANYON    0750            61 58              1021.1          2/ 9
KINGS POINT      0800            69 60              1019.6
EXECUTION ROCKS  NOT AVBL
CENTRAL LI SOUND 0800            64      CALM  /  2   N/A           1
EASTERN LI SOUND 0800            58 54   CALM  /  2   N/A
ROBBINS REEF     0800            71     180/  6/  7 1019.4
$$


>>>>>>>>>>>>>>>>>>>>>>>>>>>> KEY <<<<<<<<<<<<<<<<<<<<<<<<<<<
>                                                          <
>     SKY/WX - SKY CONDITION/PRESENT WEATHER               <
>     TMP    - TEMPERATURE IN FAHRENHEIT                   <
>     DP     - DEWPOINT IN FAHRENHEIT                      <
>     RH     - RELATIVE HUMIDITY IN PERCENT                <
>     WIND   - DIRECTION AND SPEED IN MPH                  <
>     PRES   - MEAN SEA LEVEL PRESSURE IN INCHES OF HG     <
>     WCI    - WIND CHILL INDEX                            <
>     VSB    - VISIBILITY IN MILES                         <
>     HX     - HEAT INDEX                                  <
>     TC     - TEMPERATURE IN CELSIUS                      <
>     VRB    - VARIABLE WIND DIRECTION                     <
>                                                          <
>>>>>>>>>>>>>>>>>>>>>>>>>>>> KEY <<<<<<<<<<<<<<<<<<<<<<<<<<<






USA.gov is the U.S. government's official web portal to all federal, state and local government web resources and services.